Fairchild Air Force Base, WA

3:29 PM PST on February 10, 2016 (GMT -0800)
Fairchild Air Force Base

Weather History for KSKA - May, 2014

Change the Weather History Date:

Wednesday, May 21, 2014

  Actual Average Record
Temperature  
Mean Temperature 60 °F -  
Max Temperature 74 °F 63 °F 79 °F (2015)
Min Temperature 47 °F 43 °F 35 °F (2007)
Degree Days  
Heating Degree Days 4    
Growing Degree Days 10 (Base 50)    
Moisture  
Dew Point 40 °F    
Average Humidity 45    
Maximum Humidity 76    
Minimum Humidity 28    
Precipitation  
Precipitation 0.00 in - - ()
Sea Level Pressure  
Sea Level Pressure 30.00 in    
Wind  
Wind Speed 6 mph (SW)    
Max Wind Speed 10 mph    
Max Gust Speed -    
Visibility 10 miles    
Events      
Averages and records for this station are not official NWS values.
T = Trace of Precipitation, MM = Missing Value Source: NWS Daily Summary

Daily Weather History Graph

Daily Weather History Graph

Search for Another Location

Airport or City:

Trip Planner

Search our weather history database for the weather conditions in past years. The results will help you decide how hot, cold, wet, or windy it might be!

Date:

Astronomy

May. 21, 2014 Rise Set
Actual Time 5:06 AM PDT 8:29 PM PDT
Civil Twilight 4:28 AM PDT 9:06 PM PDT
Nautical Twilight 3:38 AM PDT 9:56 PM PDT
Astronomical Twilight 2:34 AM PDT 11:01 PM PDT
Moon 1:24 AM PDT (5/21) 12:44 PM PDT (5/21)
Length of Visible Light 16h 38m
Length of Day
15h 22m
Waning Gibbous, 47% of the Moon is Illuminated
May 21
Waning Gibbous
May 28
New
Jun 5
First Quarter
Jun 12
Full
Jun 19
Last Quarter

Hourly Weather History & Observations

Time (PDT) Temp. Dew Point Humidity Pressure Visibility Wind Dir Wind Speed Gust Speed Precip Events Conditions
12:58 AM 54.1 °F 37.8 °F 54% 29.99 in 10.0 mi WSW 5.8 mph - N/A   Clear
1:58 AM 51.6 °F 37.4 °F 58% 30.01 in 10.0 mi WSW 9.2 mph - N/A   Clear
2:58 AM 51.4 °F 36.3 °F 56% 30.00 in 10.0 mi SW 4.6 mph - N/A   Clear
3:58 AM 50.7 °F 36.3 °F 58% 30.00 in 10.0 mi Calm Calm - N/A   Clear
4:58 AM 47.8 °F 40.5 °F 76% 29.98 in 10.0 mi SSE 3.5 mph - N/A   Clear
5:58 AM 49.3 °F 41.7 °F 75% 29.99 in 10.0 mi SE 4.6 mph - N/A   Clear
6:58 AM 55.0 °F 42.6 °F 63% 30.01 in 10.0 mi South 8.1 mph - N/A   Clear
7:58 AM 58.6 °F 41.5 °F 53% 30.02 in 10.0 mi SSW 4.6 mph - N/A   Clear
8:58 AM 63.0 °F 41.5 °F 45% 30.03 in 10.0 mi South 5.8 mph - N/A   Clear
9:58 AM 66.4 °F 39.9 °F 38% 30.02 in 10.0 mi SSW 5.8 mph - N/A   Clear
10:58 AM 69.4 °F 43.3 °F 39% 30.01 in 10.0 mi SW 5.8 mph - N/A   Clear
11:58 AM 71.6 °F 43.0 °F 36% 30.02 in 10.0 mi SW 10.4 mph - N/A   Clear
12:58 PM 71.8 °F 41.9 °F 34% 30.02 in 10.0 mi South 5.8 mph - N/A   Scattered Clouds
1:58 PM 73.0 °F 40.1 °F 30% 30.01 in 10.0 mi WNW 8.1 mph - N/A   Partly Cloudy
2:58 PM 73.6 °F 39.7 °F 29% 30.00 in 10.0 mi Variable 6.9 mph - N/A   Clear
3:58 PM 74.3 °F 38.8 °F 28% 29.99 in 10.0 mi WSW 5.8 mph - N/A   Partly Cloudy
4:58 PM 74.1 °F 39.0 °F 28% 29.98 in 10.0 mi South 5.8 mph - N/A   Clear
5:58 PM 73.9 °F 38.7 °F 28% 29.98 in 8.0 mi Variable 6.9 mph - N/A   Clear
6:58 PM 73.4 °F 38.8 °F 29% 29.97 in 10.0 mi WSW 6.9 mph - N/A   Clear
7:58 PM 68.4 °F 40.8 °F 37% 29.97 in 10.0 mi SW 5.8 mph - N/A   Clear
8:58 PM 63.7 °F 40.6 °F 43% 29.99 in 10.0 mi SW 5.8 mph - N/A   Clear
9:58 PM 62.2 °F 39.0 °F 42% 30.00 in 10.0 mi SSW 3.5 mph - N/A   Clear
10:58 PM 59.2 °F 39.7 °F 49% 30.00 in 10.0 mi WSW 8.1 mph - N/A   Clear
11:58 PM 58.1 °F 38.8 °F 49% 30.00 in 10.0 mi WSW 8.1 mph - N/A   Clear